Location: Hobi?a Gr?di?te
(45.4833°N, 22.7833°E)
Time: 05:14:30
(UTC+00:00)

Cosmos 2278 - Pass Details

Date: 28 January 2023
Orbit: 838 x 853 km, 71.1° (Epoch: 29 March)

Event Time Altitude Azimuth Distance (km) Brightness Sun altitude
Rises 17:40:06 0° 216° (SW) 3,384 7.4 -22.9°
Reaches altitude 10° 17:42:34 10° 220° (SW) 2,455 6.6 -23.4°
Maximum altitude 17:48:07 59° 300° (WNW) 971 4.2 -24.3°
Enters shadow 17:52:02 20° 14° (NNE) 1,861 5.3 -25.0°
